Вернуться в каталог

STARLINK-32950

АктивенСвязьVLEO
NORAD 63566·PAYLOAD·🇺🇸 United States

Запущен Apr 13, 2025 с Cape Canaveral Space Force Station

Loading…

Ближайшие Пролёты (ближайшие 24 часа)

TLE

СвежийSource: CelesTrak SupGP

Эпоха: Sep 14, 2026, 23:01 UTC

1 63566C 25075U   26257.95951389  .00027567  00000+0  99848-3 0  2570
2 63566  43.0014 281.3787 0001751 269.4152 219.0899 15.27563938    17

Отслеживайте STARLINK-32950 в реальном времени с AllMySat

Download on the App Store